Regional Weather Roundup
Issued by NWS

Home | Current Version | Previous Version | Text Only | Print | Product List | Glossary Off
Versions: 1 2 3 4 5 6 7 8 9 10 11 12 13 14 15 16 17 18 19 20 21 22 23 24 25 26 27 28 29 30 31 32 33 34 35 36 37 38 39 40 41 42 43 44 45 46 47 48 49 50

000
ASUS45 KBOU 230407
RWRCO

WEATHER ROUNDUP FOR COLORADO
NATIONAL WEATHER SERVICE DENVER/BOULDER CO
1000 PM MDT MON MAY 22 2017

NOTE: "FAIR" INDICATES FEW OR NO CLOUDS BELOW 12000 FEET WITH NO
SIGNIFICANT WEATHER AND/OR OBSTRUCTIONS TO VISIBILITY.

COZ001>005-013-030-031-230500-
...NORTHWEST COLORADO...

CITY           SKY/WX    TMP DP  RH WIND       PRES   REMARKS
CRAIG          LGT RAIN  42  35  76 SE9       30.32R
HAYDEN         CLOUDY    37  30  75 SW9       30.31F
MEEKER         CLOUDY    47  35  63 N20       30.30R
RABBIT EARS PA SNOW      28  28 100 SW12      30.33S VSB 1/2 WCI  18
STEAMBOAT SPGS CLOUDY    38  32  81 CALM      30.31S
WALDEN           N/A     32  30  93 W5        30.34R WCI  27
$$

COZ006>008-011-230500-
...WEST CENTRAL VALLEYS...

CITY           SKY/WX    TMP DP  RH WIND       PRES   REMARKS
GRAND JUNCTION MOCLDY    61  38  42 VRB7      30.17R
MONTROSE       FAIR      59  34  39 NE6       30.18R
EAGLE          CLOUDY    44  33  65 E13       30.31R
RIFLE          FAIR      54  39  57 W12       30.23R
DELTA          CLOUDY    64  34  32 NE7       30.15R
NUCLA          CLOUDY    59  30  33 CALM      30.19R
$$

COZ017>023-064>068-230500-
...SOUTHWEST COLORADO...

CITY           SKY/WX    TMP DP  RH WIND       PRES   REMARKS
DURANGO        FAIR      56  22  26 N7        30.15R
CORTEZ         FAIR      56  30  37 N5        30.14R
PAGOSA SPRINGS FAIR      49  21  32 NW3       30.20R
TELLURIDE      MOCLDY    48  26  41 CALM      30.31R
WOLF CREEK PAS FAIR      32  18  55 NW3       30.43R
$$

COZ009-010-012-014-032>034-037-058>063-230500-
...CENTRAL COLORADO...

CITY           SKY/WX    TMP DP  RH WIND       PRES   REMARKS
ASPEN          CLOUDY    40  38  93 SE8       30.27S
BUENA VISTA    LGT RAIN  41  36  82 NE9       30.27R
COPPER MTN     HVY SNOW  30  27  86 MISG      30.36S VSB 1/4
BERTHOUD PASS  CLOUDY    19  10  68 MISG      30.36R
COTTONWOOD PAS LGT SNOW  36  34  93 CALM      30.31S VSB 1
GUNNISON       FAIR      47  34  60 NE7       30.25R
KREMMLING      CLOUDY    41  36  81 SW6       30.34S
LEADVILLE      LGT SNOW  32  30  92 N8        30.30S FOG     WCI  25
MONARCH PASS   LGT SNOW  30  28  93 NW17      30.48S WCI  18
SALIDA         CLOUDY    49  38  65 NW3       30.32R
SUNLIGHT       FOG       32  30  93 NW5       30.41R VSB 3/4 WCI  27
WILKERSON PASS LGT SNOW  28  27  93 W5        30.37R VSB 3/4 WCI  23
$$

COZ069>075-230500-
...SAN LUIS VALLEY/SANGRE DE CRISTO MOUNTAINS...

CITY           SKY/WX    TMP DP  RH WIND       PRES   REMARKS
ALAMOSA        FAIR      52  29  41 N13G22    30.17R
DEL NORTE      FAIR      51  23  33 N9        30.22R
LA VETA PASS   HVY SNOW  34  32  93 NE17G26   30.43R VSB<1/4 WCI  23
SAGUACHE       MOCLDY    50  30  46 N16       30.22R
$$

COZ035-036-038>040-230500-
...NORTHERN COLORADO FRONT RANGE...

CITY           SKY/WX    TMP DP  RH WIND       PRES   REMARKS
DENVER INTL AP CLOUDY    45  39  79 W10       30.25R
DMNS CITY PARK   N/A     44  42  92 S6        30.26S
AURORA         MOCLDY    43  39  85 W7        30.26R
FRONT RANGE AP NOT AVBL
ERIE MUNI ARPT FAIR      45  42  90 S3        30.25R
BOULDER MUN AP FAIR      45  43  93 S5        30.25R
CENTENNIAL     CLOUDY    42  40  92 W9        30.26S
BROOMFIELD     CLOUDY    45  41  87 VRB3      30.26R
FORT COLLINS   FAIR      46  35  65 N6        30.25R
LONGMONT       FAIR      46  43  89 W5        30.26R FOG
$$

COZ041-046-047-076>085-087-088-230500-
...PIKES PEAK/PALMER DIVIDE AND SOUTHERN FOOTHILLS...

CITY           SKY/WX    TMP DP  RH WIND       PRES   REMARKS
COLO. SPRINGS  CLOUDY    43  34  70 NW22G31   30.27R
A. F. ACADEMY  RAIN      37  36  93 N18       30.28R
SCHRIEVER AFB  MOCLDY    41  33  72 N21G32    30.23S
CHEYENNE MTN   SHOWER    38  34  87 NW18G32   30.20R
ELLICOTT       FAIR     N/A N/A N/A N25G38    30.21R
FALCON         DRIZZLE   38  34  86 N17G28    30.26R
FORT CARSON    LGT RAIN  43  34  70 N32G41    30.23R
LIMON          MOCLDY    43  37  79 NW15G24   30.21R
MONUMENT HILL  MIX PCPN  32  32 100 NW13      30.30S WCI  22
CANON CITY     NOT AVBL
WALSENBURG     NOT AVBL
TRINIDAD       LGT RAIN  45  44  97 N21G30    30.24R
$$

COZ042>045-048>051-090-091-230500-
...NORTHEAST COLORADO...

CITY           SKY/WX    TMP DP  RH WIND       PRES   REMARKS
GREELEY ARPT   FAIR      47  38  71 NW14      30.25R
AKRON          FAIR      42  37  82 NW13      30.19R
BURLINGTON     FAIR      48  44  86 NW18      30.14R
WRAY           FAIR      46  39  76 N12       30.15R
YUMA           FAIR      45  30  57 NW10      30.16R
STERLING       FAIR      41  37  87 N5        30.19R
HOLYOKE        NOT AVBL
FORT MORGAN    FAIR      43  37  78 NW9       30.22R
$$

COZ086-089-092>099-230500-
...SOUTHEAST COLORADO...

CITY           SKY/WX    TMP DP  RH WIND       PRES   REMARKS
PUEBLO         LGT RAIN  49  37  63 N26G43    30.20R
LA JUNTA       CLOUDY    52  39  61 N17G28    30.16R
LAMAR          MOCLDY    53  41  63 N13       30.09R
SPRINGFIELD      N/A     48  44  86 N18       30.12R
$$



USA.gov is the U.S. government's official web portal to all federal, state and local government web resources and services.